This is the latest recevied weather packets stored in our database for station/object WX0ABE-13. If no packets are shown the sender has not sent any weather packets the latest 10 day(s).
| Time | Temp. | Humidity | Pressure | Rain* | Wind** | Luminosity | Snow |
|---|---|---|---|---|---|---|---|
| 1787954832 | 36.67° C | 21% | 1014.8 hPa | 0 mm | - | 207 W/m² | - |
| 1787954528 | 36.11° C | 20% | 1014.9 hPa | 0 mm | - | 195 W/m² | - |
| 1787954228 | 36.11° C | 23% | 1015 hPa | 0 mm | - | 333 W/m² | - |
| 1787953922 | 35.56° C | 23% | 1014.9 hPa | 0 mm | - | 486 W/m² | - |
| 1787953620 | 35.56° C | 22% | 1014.9 hPa | 0 mm | - | 341 W/m² | - |
| 1787953315 | 35.56° C | 22% | 1015.2 hPa | 0 mm | - | 242 W/m² | - |
| 1787953014 | 36.11° C | 19% | 1015.2 hPa | 0 mm | - | 467 W/m² | - |
| 1787952713 | 36.11° C | 27% | 1015.5 hPa | 0 mm | - | 453 W/m² | - |
| 1787952408 | 36.67° C | 22% | 1015.5 hPa | 0 mm | - | 252 W/m² | - |
| 1787952107 | 36.67° C | 20% | 1015.5 hPa | 0 mm | - | 501 W/m² | - |
| 1787951803 | 35.56° C | 25% | 1015.8 hPa | 0 mm | - | 482 W/m² | - |
| 1787951498 | 35° C | 27% | 1015.7 hPa | 0 mm | - | 344 W/m² | - |
| 1787951195 | 35° C | 27% | 1015.8 hPa | 0 mm | - | 241 W/m² | - |
| 1787950890 | 35.56° C | 24% | 1015.8 hPa | 0 mm | - | 205 W/m² | - |
| 1787950586 | 35° C | 27% | 1016.1 hPa | 0 mm | - | 212 W/m² | - |
| 1787950281 | 35.56° C | 24% | 1015.9 hPa | 0 mm | - | 315 W/m² | - |
| 1787949978 | 35° C | 24% | 1016.4 hPa | 0 mm | - | 298 W/m² | - |
| 1787949673 | 35.56° C | 24% | 1016.4 hPa | 0 mm | - | 572 W/m² | - |
| 1787949375 | 35.56° C | 24% | 1016.2 hPa | 0 mm | - | 521 W/m² | - |
| 1787949073 | 35.56° C | 24% | 1016.3 hPa | 0 mm | - | 609 W/m² | - |
| 1787948769 | 34.44° C | 26% | 1016.4 hPa | 0 mm | - | 659 W/m² | - |
| 1787948463 | 33.89° C | 28% | 1016.4 hPa | 0 mm | - | 463 W/m² | - |
| 1787948158 | 34.44° C | 28% | 1016.6 hPa | 0 mm | - | 159 W/m² | - |
| 1787947857 | 34.44° C | 27% | 1016.6 hPa | 0 mm | - | 274 W/m² | - |
| 1787947557 | 35° C | 27% | 1016.6 hPa | 0 mm | - | 583 W/m² | - |
* Rain latest hour (hover to see other rain measurements)
** Current wind speed in m/s (hover to see current wind gust speed)